[[{"header":{"parameterUnit":"m.s-1","parameterCategory":1,"la1":30.2991,"la2":30.254,"lo1":-89.0895,"lo2":-89.0444,"dy":0.0017,"dx":0.0017,"nx":28,"ny":28,"refTime":"2024-08-24T03:00:00:Z","depth":0,"parameterNumber":2,"parameterNumberName":"U-component_of_WINDS"},"data":[0,0,0,0,0,0,0,0,0,0,0,0,0,0,0,0,0,0,0,0,0,0,0,0,0,0,0,0,0,0,0,0,0,0,0,0,0,0,0,0,0,0,0,0,0,0,0,0,0,0,0,0,0,0,0,0,0,0,-1.509,-1.509,0,-1.5077,-1.5077,-1.5077,-1.5034,-1.5033,-1.5033,-1.5032,-1.5018,-1.5018,-1.5019,0,0,0,0,0,0,0,0,0,0,0,0,0,-1.5078,-1.5079,-1.509,-1.509,-1.509,-1.5077,-1.5077,-1.5077,-1.5035,-1.5033,-1.5032,-1.5031,-1.5018,-1.5018,-1.5019,0,0,0,0,0,0,0,0,0,0,0,0,0,-1.5076,-1.5079,-1.509,-1.5067,-1.5065,-1.5077,-1.5077,-1.5077,-1.5035,-1.5033,-1.5032,-1.5031,-1.5017,-1.5018,-1.5019,-1.5052,0,0,-1.5021,-1.5021,0,0,0,0,0,0,0,0,-1.5076,-1.5077,-1.5071,-1.5069,-1.5066,-1.5056,-1.5068,-1.5068,-1.5035,-1.5046,-1.5032,-1.503,-1.5032,-1.5031,-1.5032,-1.5051,-1.5051,-1.5021,-1.5022,-1.5022,-1.5022,0,0,0,0,0,0,0,-1.5077,-1.5077,-1.5085,-1.5071,-1.5068,-1.5058,-1.5056,-1.5068,-1.5047,-1.5045,-1.5042,-1.5041,-1.503,-1.5031,-1.5031,-1.505,-1.5021,-1.5022,-1.5022,-1.5023,-1.5098,-1.51,0,0,0,0,0,0,-1.508,-1.5077,-1.5085,-1.5084,-1.5068,-1.5059,-1.5057,-1.5061,-1.5047,-1.5043,-1.5042,-1.5039,-1.503,-1.503,-1.503,-1.5069,-1.5022,-1.5023,-1.5023,-1.5097,-1.5099,-1.51,0,0,0,0,0,0,-1.508,-1.5081,-1.5086,-1.508,-1.508,-1.5061,-1.5065,-1.5061,-1.5062,-1.5045,-1.5041,-1.5047,-1.5029,-1.5029,-1.5047,-1.5068,-1.5023,-1.5024,-1.5095,-1.5097,-1.51,-1.5146,0,0,0,0,0,0,-1.508,-1.5081,-1.5093,-1.5081,-1.508,-1.5103,-1.5067,-1.5062,-1.5064,-1.5059,-1.5048,-1.5045,-1.5028,-1.5046,-1.5048,-1.5068,-1.5024,-1.5093,-1.5096,-1.5099,-1.5142,-1.515,-1.5156,0,0,0,0,0,-1.508,-1.5106,-1.5094,-1.5095,-1.5095,-1.5104,-1.5104,-1.5084,-1.5065,-1.5078,-1.5067,-1.5045,-1.5066,-1.5049,-1.505,-1.5071,-1.5092,-1.5095,-1.5099,-1.5139,-1.5148,-1.5156,0,0,0,0,0,0,-1.5121,-1.5104,-1.509,-1.5114,-1.5111,-1.5097,-1.5111,-1.5094,-1.5096,-1.5091,-1.5067,-1.5065,-1.5087,-1.5081,-1.5062,-1.5103,-1.5075,-1.5079,-1.5106,-1.5114,-1.512,-1.5121,-1.5025,0,0,0,0,0,-1.5133,-1.5142,-1.5127,-1.5149,-1.5148,-1.513,-1.5133,-1.5119,-1.5115,-1.5113,-1.5103,-1.51,-1.5105,-1.5109,-1.5114,-1.5142,-1.5139,-1.5157,-1.5164,-1.5169,-1.5173,-1.5188,-1.5196,-1.5112,-1.5112,-1.5112,0,0,-1.5158,-1.515,-1.5156,-1.5157,-1.5153,-1.5163,-1.5129,-1.5141,-1.5148,-1.5114,-1.5131,-1.5124,-1.5119,-1.5142,-1.5152,-1.5138,-1.5196,-1.5174,-1.5178,-1.5178,-1.5193,-1.5201,-1.5208,-1.5114,-1.5114,-1.5113,0,0,-1.5207,-1.5202,-1.5221,-1.5218,-1.5212,-1.5201,-1.5205,-1.5194,-1.5189,-1.5205,-1.5181,-1.5189,-1.5199,-1.5197,-1.5197,-1.5249,-1.5229,-1.5251,-1.5285,-1.5301,-1.5307,-1.5313,-1.5332,-1.5339,-1.5255,-1.5255,-1.5255,0,-1.5238,-1.5252,-1.5232,-1.5246,-1.5247,-1.5219,-1.5238,-1.5236,-1.5232,-1.5234,-1.5218,-1.5231,-1.5226,-1.5249,-1.5262,-1.5263,-1.5268,-1.5251,-1.5308,-1.5314,-1.5319,-1.5336,-1.5343,-1.5258,-1.5257,-1.5257,-1.5257,0,-1.5291,-1.5301,-1.5317,-1.5315,-1.5318,-1.5334,-1.5317,-1.5323,-1.5309,-1.53,-1.5318,-1.531,-1.5313,-1.5318,-1.5304,-1.534,-1.5331,-1.5312,-1.5284,-1.533,-1.5346,-1.5352,-1.5261,-1.526,-1.526,-1.5259,0,0,-1.5364,-1.5353,-1.5359,-1.5358,-1.5351,-1.5359,-1.5375,-1.5378,-1.5384,-1.5383,-1.5396,-1.5406,-1.5389,-1.5389,-1.5375,-1.5389,-1.5432,-1.5369,-1.5368,-1.538,-1.5471,-1.5485,-1.5494,-1.5419,-1.5421,-1.5422,-1.5472,0,-1.5412,-1.5437,-1.5421,-1.5449,-1.5459,-1.5434,-1.5447,-1.5445,-1.5437,-1.5444,-1.5435,-1.5443,-1.542,-1.542,-1.5433,-1.5424,-1.5449,-1.542,-1.5431,-1.5431,-1.5432,-1.5502,-1.5516,-1.5564,-1.5478,-1.5479,-1.548,0,-1.547,-1.5472,-1.5502,-1.5495,-1.5498,-1.5511,-1.5514,-1.5521,-1.5518,-1.5511,-1.5513,-1.5496,-1.5512,-1.5485,-1.5506,-1.5487,-1.549,-1.5487,-1.5488,-1.5488,-1.5458,-1.5503,-1.5579,-1.5586,-1.549,-1.5489,-1.5488,0,-1.5521,-1.5532,-1.5551,-1.5551,-1.5543,-1.5553,-1.555,-1.5546,-1.555,-1.5553,-1.5555,-1.5559,-1.5562,-1.5566,-1.5551,-1.5533,-1.5575,-1.5546,-1.5569,-1.557,-1.5578,-1.5578,-1.5655,-1.5582,-1.5582,-1.5582,-1.5582,0,-1.5575,-1.5594,-1.5574,-1.5586,-1.5607,-1.5589,-1.5611,-1.5605,-1.5602,-1.5613,-1.5591,-1.5602,-1.5582,-1.5591,-1.5579,-1.5599,-1.56,-1.5596,-1.5592,-1.5597,-1.5598,-1.5599,-1.5595,-1.5584,-1.5583,-1.5583,-1.5583,0,-1.5635,-1.5622,-1.5642,-1.5633,-1.5632,-1.5648,-1.564,-1.5652,-1.5643,-1.5657,-1.5659,-1.5646,-1.5655,-1.5641,-1.5649,-1.5641,-1.5669,-1.5661,-1.567,-1.5667,-1.5692,-1.569,-1.5772,-1.5782,-1.5702,-1.5703,-1.5704,0,-1.567,-1.5685,-1.5678,-1.5684,-1.5683,-1.5692,-1.5696,-1.568,-1.5685,-1.5684,-1.5695,-1.5703,-1.5708,-1.5725,-1.5716,-1.5722,-1.5714,-1.5743,-1.5715,-1.572,-1.5714,-1.5714,-1.5715,-1.5748,-1.5749,-1.575,-1.575,0,-1.5734,-1.5728,-1.5735,-1.574,-1.5746,-1.5749,-1.575,-1.5757,-1.5739,-1.5746,-1.5756,-1.576,-1.5769,-1.5777,-1.5782,-1.5779,-1.5762,-1.5759,-1.5765,-1.577,-1.5775,-1.5773,-1.5685,-1.5757,-1.5757,-1.5756,-1.5756,-1.5755,-1.5783,-1.5795,-1.5793,-1.5802,-1.5801,-1.5804,-1.5814,-1.5807,-1.5815,-1.5821,-1.5811,-1.5824,-1.5822,-1.5827,-1.5826,-1.5836,-1.5824,-1.5832,-1.5834,-1.5836,-1.584,-1.5774,-1.5837,-1.5837,-1.5836,-1.5836,-1.5836,0,-1.5846,-1.5844,-1.5852,-1.5856,-1.5863,-1.5847,-1.5849,-1.5856,-1.5867,-1.5868,-1.5874,-1.5886,-1.5894,-1.5887,-1.5894,-1.5904,-1.5896,-1.5906,-1.5905,-1.5905,-1.5851,-1.5845,-1.5912,-1.5912,-1.5912,-1.5912,-1.5912,-1.5912,-1.588,-1.59,-1.5894,-1.5914,-1.5911,-1.5924,-1.5926,-1.5928,-1.5929,-1.5943,-1.595,-1.5946,-1.5943,-1.595,-1.5958,-1.5955,-1.5959,-1.5972,-1.5967,-1.5916,-1.5908,-1.5901,-1.5896,-1.5973,-1.5973,-1.602,-1.602,-1.6021]},{"header":{"parameterUnit":"m.s-1","parameterCategory":1,"la1":30.2991,"la2":30.254,"lo1":-89.0895,"lo2":-89.0444,"dy":0.0017,"dx":0.0017,"nx":28,"ny":28,"refTime":"2024-08-24T03:00:00:Z","depth":0,"parameterNumber":3,"parameterNumberName":"V-component_of_WINDS"},"data":[0,0,0,0,0,0,0,0,0,0,0,0,0,0,0,0,0,0,0,0,0,0,0,0,0,0,0,0,0,0,0,0,0,0,0,0,0,0,0,0,0,0,0,0,0,0,0,0,0,0,0,0,0,0,0,0,0,0,3.1045,3.1045,0,3.1039,3.1039,3.1039,3.103,3.103,3.103,3.103,3.1023,3.1023,3.1023,0,0,0,0,0,0,0,0,0,0,0,0,0,3.1049,3.1049,3.1045,3.1045,3.1045,3.1039,3.1039,3.1039,3.103,3.103,3.103,3.103,3.1023,3.1023,3.1023,0,0,0,0,0,0,0,0,0,0,0,0,0,3.1046,3.1049,3.1045,3.104,3.1039,3.1039,3.1039,3.1039,3.103,3.103,3.103,3.103,3.1023,3.1023,3.1023,3.1027,0,0,3.1023,3.1023,0,0,0,0,0,0,0,0,3.1046,3.1045,3.1041,3.104,3.104,3.1035,3.1038,3.1035,3.103,3.1034,3.103,3.103,3.1027,3.1027,3.1026,3.1027,3.1026,3.1023,3.1023,3.1023,3.1023,0,0,0,0,0,0,0,3.1046,3.1046,3.1043,3.1041,3.104,3.1038,3.1037,3.1037,3.1032,3.1033,3.1033,3.1032,3.1027,3.1026,3.1026,3.1026,3.1023,3.1023,3.1023,3.1023,3.103,3.103,0,0,0,0,0,0,3.1047,3.1046,3.1043,3.1042,3.1042,3.1038,3.1037,3.1037,3.1032,3.1031,3.1032,3.1032,3.1027,3.1026,3.1026,3.103,3.1023,3.1023,3.1023,3.1029,3.103,3.103,0,0,0,0,0,0,3.1047,3.1047,3.1043,3.1044,3.1043,3.1038,3.1038,3.1037,3.1036,3.1031,3.103,3.1033,3.1026,3.1026,3.1027,3.1029,3.1023,3.1023,3.1029,3.103,3.103,3.1038,0,0,0,0,0,0,3.1047,3.1047,3.1048,3.1044,3.1043,3.1044,3.1038,3.1037,3.1036,3.1035,3.1031,3.103,3.1026,3.1027,3.1027,3.1029,3.1023,3.1029,3.1029,3.103,3.1037,3.1038,3.1039,0,0,0,0,0,3.1048,3.1051,3.1049,3.1048,3.1045,3.1044,3.1044,3.1039,3.1036,3.1038,3.1034,3.103,3.1029,3.1027,3.1027,3.1029,3.1029,3.1029,3.103,3.1037,3.1038,3.1039,0,0,0,0,0,0,3.1055,3.105,3.1048,3.105,3.1047,3.1043,3.1044,3.1041,3.1039,3.1039,3.1033,3.1032,3.1034,3.1032,3.1029,3.1033,3.1028,3.1029,3.1034,3.1035,3.1036,3.1036,3.1023,0,0,0,0,0,3.1058,3.1057,3.1053,3.1055,3.1054,3.105,3.1049,3.1046,3.1043,3.1042,3.1039,3.1037,3.1036,3.1036,3.1035,3.1037,3.1036,3.1039,3.104,3.1041,3.1041,3.1042,3.1043,3.1032,3.1032,3.1032,0,0,3.1062,3.1059,3.1059,3.1057,3.1055,3.1055,3.1049,3.1049,3.1049,3.1042,3.1043,3.1041,3.1038,3.104,3.104,3.1038,3.1044,3.1041,3.1042,3.1042,3.1043,3.1044,3.1045,3.1032,3.1032,3.1032,0,0,3.1069,3.1067,3.1068,3.1067,3.1064,3.1061,3.1061,3.1057,3.1055,3.1056,3.1051,3.1051,3.105,3.1048,3.1047,3.1054,3.105,3.1054,3.1059,3.106,3.1061,3.1061,3.1063,3.1064,3.1054,3.1054,3.1054,0,3.1074,3.1074,3.1069,3.107,3.1069,3.1064,3.1065,3.1063,3.106,3.106,3.1057,3.1056,3.1053,3.1055,3.1056,3.1056,3.1056,3.1054,3.1061,3.1062,3.1062,3.1064,3.1065,3.1054,3.1054,3.1054,3.1054,0,3.108,3.108,3.1082,3.1079,3.1079,3.108,3.1075,3.1075,3.1072,3.1069,3.107,3.1067,3.1065,3.1066,3.1063,3.1066,3.1065,3.1062,3.1057,3.1064,3.1066,3.1066,3.1055,3.1055,3.1055,3.1055,0,0,3.1092,3.1087,3.1087,3.1086,3.1083,3.1083,3.1084,3.1082,3.1082,3.108,3.108,3.108,3.1077,3.1076,3.1072,3.1074,3.1079,3.107,3.107,3.1071,3.1082,3.1084,3.1085,3.1077,3.1077,3.1077,3.1083,0,3.1098,3.1099,3.1095,3.1097,3.1097,3.1092,3.1093,3.1091,3.1088,3.1088,3.1085,3.1085,3.1081,3.108,3.1081,3.1078,3.1081,3.1078,3.1076,3.1076,3.1077,3.1086,3.1088,3.1094,3.1083,3.1083,3.1083,0,3.1105,3.1104,3.1106,3.1102,3.1102,3.1103,3.1101,3.1101,3.1098,3.1097,3.1096,3.1092,3.1093,3.1089,3.1089,3.1087,3.1087,3.1085,3.1085,3.1084,3.108,3.1085,3.1096,3.1096,3.1085,3.1084,3.1084,0,3.1112,3.1111,3.1112,3.1111,3.1108,3.1108,3.1107,3.1104,3.1103,3.1102,3.1102,3.11,3.11,3.1099,3.1095,3.1092,3.1096,3.1092,3.1094,3.1094,3.1094,3.1094,3.1104,3.1095,3.1095,3.1095,3.1095,0,3.1119,3.112,3.1115,3.1116,3.1117,3.1113,3.1115,3.1113,3.1111,3.1111,3.1107,3.1107,3.1102,3.1101,3.1099,3.1099,3.1099,3.1097,3.1097,3.1097,3.1098,3.1097,3.1096,3.1095,3.1095,3.1095,3.1095,0,3.1127,3.1124,3.1125,3.1121,3.1121,3.1122,3.1119,3.1119,3.1117,3.1117,3.1117,3.1113,3.1112,3.1108,3.1107,3.1105,3.1106,3.1105,3.1107,3.1106,3.1109,3.1108,3.1118,3.1119,3.111,3.111,3.111,0,3.1132,3.1132,3.1129,3.1129,3.1128,3.1127,3.1127,3.1123,3.1123,3.112,3.1121,3.112,3.1119,3.1118,3.1115,3.1114,3.1112,3.1115,3.1112,3.1113,3.1111,3.1111,3.1111,3.1116,3.1116,3.1116,3.1116,0,3.1139,3.1138,3.1137,3.1136,3.1135,3.1134,3.1133,3.1133,3.1129,3.1128,3.1128,3.1127,3.1126,3.1125,3.1123,3.1121,3.1118,3.1118,3.1118,3.1119,3.112,3.1119,3.1109,3.1117,3.1117,3.1117,3.1117,3.1117,3.1145,3.1146,3.1144,3.1143,3.1142,3.1141,3.1141,3.1139,3.1138,3.1136,3.1134,3.1134,3.1132,3.1129,3.1128,3.1128,3.1126,3.1126,3.1126,3.1127,3.1127,3.112,3.1127,3.1127,3.1127,3.1127,3.1127,0,3.1152,3.1151,3.1151,3.1149,3.1148,3.1146,3.1144,3.1144,3.1144,3.1142,3.1141,3.114,3.114,3.1137,3.1135,3.1136,3.1134,3.1135,3.1135,3.1135,3.1129,3.1128,3.1137,3.1137,3.1137,3.1137,3.1137,3.1137,3.1156,3.1157,3.1155,3.1155,3.1154,3.1153,3.1152,3.1151,3.115,3.1149,3.1149,3.1147,3.1145,3.1144,3.1143,3.1142,3.1141,3.1143,3.1142,3.1136,3.1135,3.1134,3.1134,3.1143,3.1143,3.1148,3.1148,3.1148]}]]